Tracking 35331 objects as of 17-Sep-2026
HD Live streaming from Space Station
objects crossing your sky now

AEROCUBE 15A


AEROCUBE 15A is no longer on orbit


NORAD ID: 45118
Int'l Code: 2019-071H
Launch date: November 2, 2019
Source: United States (US)
Launch site: WALLOPS ISLAND (WLPIS)
Decay date: 2023-02-07
Your satellite tracking list
Your tracking list is empty




NASA's NSSDC Master Catalog

Two Line Element Set (TLE):
1 45118U 19071H   23036.22650517  .13133590  12457-4  45352-3 0  9999
2 45118  51.6096 317.8793 0006297 236.9356 123.1068 16.44162111169840
Source of the keplerian elements: AFSPC